Temperature
18 18 18 18 18 18 18 18 18 18 18 18 18 18 18 18 18 18 19 19 19 19 18 18 18 18 18 18 18 18 18 18 17 17 17 17 17 17 17 17 17 17 16
18 18 18 18 18 18 18 18 18 18 18 18 18 18 18 18 18 18 18 19 19 19 19 19 18 18 18 18 18 18 18 18 18 18 17 17 17 17 17 17 17 17 16
18 18 18 18 18 18 18 18 18 18 18 18 18 18 18 18 18 18 18 18 19 19 19 19 19 18 18 18 18 18 18 18 18 18 18 18 17 17 17 17 17 17 17
17 18 17 17 18 18 18 18 18 18 18 18 18 18 18 18 18 18 18 18 19 19 19 19 19 19 19 18 18 18 18 18 18 18 18 18 18 17 17 17 17 17 17
17 17 17 17 17 17 17 17 17 17 17 18 18 18 18 18 18 18 18 18 18 18 19 19 19 19 19 19 19 19 19 19 19 18 18 18 18 18 18 17 17 17 17
16 16 16 16 16 16 16 16 16 17 17 17 17 17 17 18 18 18 18 18 18 18 19 18 18 19 19 19 19 19 19 19 19 19 19 18 18 18 18 18 18 17 17
16 16 16 16 16 16 16 16 16 16 16 17 17 17 17 18 18 18 18 18 19 19 18 18 18 18 19 19 19 19 19 19 19 19 19 19 18 18 18 18 18 18 18
16 16 15 16 15 15 16 15 15 15 16 16 16 17 18 19 19 19 18 18 18 19 19 18 18 18 18 18 19 19 19 20 19 19 19 19 19 18 18 18 18 18 18
16 16 16 15 15 15 15 15 15 15 15 16 16 16 17 19 20 20 19 19 18 18 19 19 18 18 18 18 18 18 19 19 19 19 19 19 19 18 18 18 18 18 18
16 16 15 15 15 15 14 15 14 14 14 15 16 16 16 17 18 19 20 19 18 18 18 18 19 18 18 17 17 18 18 18 19 19 19 18 18 18 18 18 18 18 17
15 15 15 15 15 14 14 15 15 14 14 14 15 15 16 16 16 16 18 19 19 18 18 17 17 18 18 17 17 17 17 18 18 18 18 18 18 18 18 18 18 18 17
15 14 14 14 14 14 14 14 14 14 14 14 14 14 15 15 16 16 17 17 18 18 18 17 17 17 17 16 16 16 17 17 17 17 17 18 18 18 18 18 18 18 17
15 14 14 14 14 14 14 14 14 14 13 13 13 14 14 15 15 16 16 17 17 17 17 16 16 16 16 16 16 16 16 16 16 16 16 17 17 17 17 17 17 17 17
15 15 15 14 14 14 14 14 13 13 13 13 13 13 14 14 15 15 15 15 16 16 16 15 15 15 15 15 15 15 15 15 15 15 15 16 16 16 17 17 17 17 17
15 14 14 14 14 14 14 14 13 13 13 13 13 13 14 14 14 15 15 15 15 15 15 15 14 14 14 14 14 14 14 14 14 14 14 15 15 15 16 16 16 17 17
15 14 14 14 13 13 13 13 13 13 13 13 13 13 14 14 14 14 14 15 15 14 14 14 13 13 13 13 13 13 13 13 13 13 14 14 14 14 15 15 15 15 16
14 14 14 13 13 13 13 13 12 12 12 13 13 13 13 13 14 14 14 14 14 14 13 13 13 12 12 12 12 12 12 12 12 13 13 13 13 13 14 14 14 14 14
14 13 13 13 13 12 12 12 12 12 12 12 12 12 13 13 13 13 13 14 14 13 13 12 12 12 12 12 12 12 12 12 12 12 12 12 13 13 13 13 13 13 14
13 13 12 12 12 12 12 12 12 12 12 12 12 12 12 13 13 13 13 13 13 12 12 12 11 11 11 11 11 11 11 11 11 12 12 12 12 12 12 12 12 13 13
12 12 12 12 12 12 12 12 12 12 12 12 12 12 12 12 12 12 12 12 12 12 11 11 11 11 11 11 11 11 11 11 11 11 11 11 11 11 12 12 12 12 12
11 12 12 12 12 12 12 12 11 11 11 11 11 11 11 11 11 11 11 11 11 11 11 11 11 11 11 11 11 11 11 10 10 10 11 10 10 11 11 11 12 12 12
11 11 11 12 11 12 12 12 11 11 11 11 11 11 11 11 11 11 11 11 11 11 11 11 11 11 11 11 11 11 11 11 11 10 11 10 10 10 10 11 11 11 11
10 10 11 11 11 11 12 12 11 11 11 11 11 11 11 10 10 11 11 11 10 10 11 11 11 11 11 11 11 11 11 11 11 10 11 10 10 9 9 10 10 10 10
9 10 10 11 11 11 11 11 11 10 11 11 11 11 11 10 10 10 10 10 10 10 10 10 10 10 10 10 11 11 11 11 10 10 11 11 10 9 9 9 9 9 10
8 9 9 10 10 11 11 11 11 11 10 10 10 10 10 10 10 10 10 10 10 10 10 11 11 10 10 10 10 11 11 11 11 10 11 11 10 10 10 9 9 9 9
8 8 9 9 10 10 11 11 11 11 11 10 10 10 10 10 10 10 10 10 10 10 10 10 10 10 10 10 10 11 12 12 11 10 10 11 11 11 10 9 9 8 8
Wind_Speed
10 10 8 10 12 12 10 10 10 11 11 12 13 14 15 14 14 14 11 12 17 18 19 19 19 19 19 20 20 21 22 24 26 27 28 28 28 28 27 26 25 25 24
9 10 11 11 11 12 12 11 12 11 11 11 13 14 14 15 14 14 15 14 17 19 20 20 20 19 19 20 20 21 21 22 24 26 28 29 29 29 28 28 27 26 26
11 10 11 11 11 13 13 12 12 11 12 12 14 14 14 15 16 15 16 15 14 17 22 22 21 20 20 20 20 21 22 22 23 24 27 28 29 29 29 29 28 27 27
11 10 10 11 11 11 11 11 11 11 12 12 12 13 13 12 16 16 16 16 15 15 17 22 22 21 20 20 20 21 21 22 23 24 25 27 28 29 29 29 29 28 28
10 10 10 10 11 11 11 12 11 11 12 13 13 13 14 14 15 16 17 17 17 16 17 16 20 21 21 21 21 21 21 22 23 24 25 26 27 28 29 29 29 29 28
9 10 10 11 12 12 11 11 13 12 12 13 14 15 14 14 15 16 17 16 15 18 19 18 16 17 23 23 22 22 22 22 23 24 26 26 27 28 29 29 29 29 29
9 8 10 10 10 11 12 14 13 14 14 12 12 14 15 17 18 16 16 16 18 18 18 17 16 16 14 22 25 24 24 23 23 24 25 26 28 28 29 29 29 29 29
8 8 9 10 10 10 12 13 13 13 13 11 11 12 13 14 15 17 16 17 18 16 17 19 18 16 16 14 15 23 23 23 23 23 24 25 27 28 29 29 29 29 29
8 8 9 10 10 11 11 12 12 14 14 13 13 12 12 13 12 12 15 15 15 15 16 16 17 17 17 15 15 16 20 20 21 22 22 23 25 27 28 29 29 29 30
7 8 8 9 10 10 11 12 13 12 14 14 13 14 16 16 14 13 12 13 14 15 16 14 15 15 15 15 13 11 9 13 16 18 20 20 21 23 26 27 29 30 30
6 7 8 9 10 10 11 12 13 13 12 14 14 14 15 15 17 15 15 13 12 13 13 14 13 12 12 12 11 10 7 9 11 13 15 15 17 19 22 24 27 28 29
6 7 8 9 10 11 11 12 13 14 14 15 14 14 14 14 14 14 16 15 14 12 10 8 8 8 8 8 7 2 3 3 5 6 8 10 11 12 15 19 23 26 28
8 7 9 9 10 11 12 13 13 14 15 15 15 14 14 15 14 14 14 14 14 10 6 5 5 5 5 4 2 6 6 4 4 3 3 2 2 4 6 9 14 20 24
9 9 10 11 12 13 13 13 13 14 14 14 16 16 14 14 14 14 14 13 12 10 8 5 1 2 1 2 4 5 8 9 10 10 10 10 9 8 5 3 2 5 10
9 10 10 11 12 13 13 14 13 14 13 14 14 15 14 13 13 12 12 11 11 9 7 3 2 1 2 3 5 6 8 12 13 15 16 16 17 16 15 14 12 10 8
11 11 11 11 12 13 13 13 13 13 13 13 11 12 12 11 10 10 10 10 10 8 4 1 2 3 4 6 8 10 12 15 16 17 18 19 19 20 19 18 17 17 16
12 12 12 11 12 12 12 11 12 12 12 11 10 9 9 9 7 6 6 5 5 6 5 3 4 4 6 7 7 8 10 10 13 18 19 20 20 20 20 19 18 18 18
13 13 12 11 11 11 10 10 11 10 10 9 8 7 6 5 5 4 3 3 3 4 7 9 5 4 6 7 8 9 8 10 12 18 20 21 21 20 20 19 18 18 17
14 14 13 12 10 9 9 8 8 7 7 7 6 5 4 3 2 2 3 5 6 7 8 10 7 4 5 6 8 9 10 9 11 15 19 20 20 20 19 18 17 17 16
14 14 13 12 10 8 7 6 5 5 4 4 4 4 4 4 5 6 7 8 9 10 10 9 9 7 6 7 7 8 9 8 9 10 12 14 17 18 18 17 16 16 15
14 14 14 12 10 8 5 4 3 1 1 3 5 6 7 10 10 8 8 8 8 8 8 8 9 8 7 7 7 8 10 10 9 8 9 9 9 10 12 15 16 15 14
14 13 13 13 11 8 5 1 3 2 2 4 5 7 8 11 14 14 14 12 8 8 8 7 8 9 9 8 7 8 9 9 8 6 8 9 8 10 10 12 13 14 15
13 12 13 13 12 8 9 5 3 3 4 5 5 6 8 9 9 10 13 13 12 10 7 7 9 9 10 9 8 8 7 8 8 6 7 9 8 10 10 12 13 14 14
12 11 12 12 12 11 12 9 6 6 6 6 6 8 9 9 8 9 12 12 11 10 8 9 10 10 10 8 9 10 11 11 9 6 5 8 8 8 9 10 11 12 12
12 11 11 12 12 12 14 12 10 8 8 8 8 8 9 10 9 9 12 13 12 11 14 16 14 13 13 10 4 7 8 9 9 7 5 6 7 7 7 7 8 9 9
12 11 11 11 12 12 15 15 13 9 10 9 8 8 9 11 10 8 12 13 13 12 12 12 11 11 11 9 7 5 5 7 9 8 5 3 5 5 6 6 6 5 5
Wind_Direction
264 268 270 268 270 271 264 256 259 263 258 256 255 253 254 255 251 250 252 223 221 228 237 243 243 243 242 238 236 236 235 233 228 223 222 222 222 223 224 226 227 227 225
273 276 274 271 270 269 268 267 264 262 260 258 257 257 258 258 254 251 252 243 222 225 233 241 244 244 243 241 238 236 236 234 230 225 222 222 222 222 223 224 226 227 226
279 279 280 277 273 273 272 267 264 261 258 254 253 255 255 254 255 251 250 252 246 229 227 233 239 242 243 244 242 239 236 233 231 226 223 221 221 221 222 223 224 225 225
291 289 283 282 285 280 274 268 262 260 258 258 258 256 254 253 253 251 247 244 246 250 238 227 230 235 239 244 246 242 237 234 230 226 223 221 220 221 221 222 223 224 224
299 294 291 290 288 282 277 274 271 264 263 260 259 255 253 251 251 251 247 246 243 243 249 240 224 227 234 241 244 244 240 235 230 226 222 220 219 220 220 221 222 222 223
302 302 294 293 293 287 282 277 276 269 264 264 265 264 259 255 252 249 246 244 243 242 243 246 241 230 225 231 236 240 241 239 233 228 223 220 219 218 219 220 221 221 221
306 299 296 301 291 288 289 288 283 276 268 264 265 265 260 253 249 248 245 246 242 239 241 243 245 248 237 220 224 231 237 239 237 232 226 222 220 218 217 218 219 219 220
304 299 301 297 295 294 286 282 280 279 276 266 260 267 268 259 244 241 240 238 243 242 239 237 237 239 247 249 230 218 228 234 239 237 231 226 222 219 216 217 217 218 218
302 302 299 295 297 290 286 286 284 276 275 272 260 258 265 267 268 250 235 238 241 242 243 242 237 237 238 243 250 222 214 224 235 240 237 231 225 221 218 217 216 216 217
297 299 296 295 293 291 289 284 280 279 275 272 266 254 255 268 274 271 251 236 234 239 245 246 243 237 235 239 238 250 225 227 236 242 242 238 231 225 221 220 219 217 216
290 293 296 294 292 289 289 287 285 277 272 269 270 267 261 257 254 257 261 257 242 234 234 238 242 245 242 242 247 243 213 225 236 240 243 243 239 232 227 224 222 221 217
293 294 294 292 290 290 289 286 282 276 270 268 267 265 261 257 252 248 249 250 251 246 237 237 242 244 244 245 241 122 133 194 223 230 232 235 236 234 231 229 227 225 221
298 303 302 297 294 292 291 289 284 279 274 269 265 263 260 257 258 257 255 253 254 254 243 233 239 244 238 228 181 113 103 106 115 118 123 146 183 216 224 228 230 229 226
293 303 296 292 292 292 291 289 285 280 275 272 268 265 262 259 255 250 249 252 252 247 234 220 203 228 216 155 111 124 107 91 89 87 85 82 78 75 77 107 195 221 219
279 282 287 289 291 292 292 291 286 284 280 274 270 266 261 259 254 250 245 241 241 241 234 199 155 90 106 107 114 109 100 88 85 83 80 78 75 71 66 65 67 70 80
271 273 277 283 288 293 295 295 295 292 288 283 278 273 267 261 256 251 245 238 231 231 222 130 114 109 100 103 96 96 94 88 84 85 82 79 76 74 71 69 68 69 72
266 265 270 278 285 293 298 299 300 303 300 297 294 286 281 273 263 255 243 231 218 201 168 117 95 98 99 101 100 98 98 94 89 86 86 83 79 76 74 71 70 70 71
266 262 264 270 279 289 295 298 303 310 312 311 308 305 305 300 276 251 218 184 161 150 137 126 110 99 96 102 101 96 95 93 92 87 86 85 82 79 76 74 72 70 70
271 264 259 262 271 281 287 293 301 310 316 319 319 327 334 360 37 79 107 111 110 113 116 121 119 106 103 111 106 102 101 104 99 97 91 88 86 83 79 76 72 69 68
276 262 256 255 260 265 274 287 295 309 329 348 1 13 24 54 74 86 91 99 107 112 118 122 123 123 121 124 124 123 115 108 106 104 98 101 100 93 86 78 71 68 66
282 264 254 249 246 247 250 270 276 305 17 55 54 50 60 75 73 79 94 103 112 117 122 126 128 129 130 139 136 131 120 117 111 120 123 123 117 102 92 79 69 63 62
291 275 254 244 238 233 127 129 277 149 111 97 88 83 82 82 82 80 80 77 82 113 125 130 130 128 130 129 128 135 138 132 118 119 120 111 103 92 80 73 64 61 58
298 286 264 246 233 198 149 171 229 172 135 115 107 102 97 94 95 102 95 88 76 71 94 113 119 124 127 131 137 126 108 106 102 120 124 114 108 100 93 80 72 65 59
300 292 276 253 232 194 164 174 192 175 137 127 120 115 113 111 111 115 113 104 94 73 79 99 103 101 105 108 108 110 114 114 109 101 120 117 114 109 105 95 89 76 65
297 293 283 262 234 193 170 175 194 170 149 139 135 130 128 126 128 128 119 112 104 92 71 73 77 82 68 56 75 135 138 128 114 101 97 117 122 120 109 100 109 117 97
287 291 284 268 242 205 175 178 198 179 157 150 140 137 137 139 149 156 134 127 121 117 114 108 104 111 103 85 48 70 118 126 123 108 80 99 122 138 119 89 65 63 78
Height
1536 1536 1534 1533 1533 1532 1532 1531 1530 1530 1529 1529 1530 1529 1529 1530 1530 1530 1529 1528 1529 1529 1530 1531 1532 1532 1533 1535 1536 1537 1539 1540 1541 1543 1544 1546 1547 1549 1551 1553 1555 1557 1559
1531 1531 1529 1528 1527 1526 1526 1525 1525 1524 1524 1523 1523 1523 1523 1523 1523 1523 1523 1524 1523 1524 1525 1526 1527 1528 1529 1530 1531 1533 1534 1535 1537 1538 1539 1541 1543 1544 1546 1548 1550 1552 1554
1528 1526 1524 1523 1522 1521 1520 1519 1518 1518 1517 1517 1517 1516 1516 1516 1516 1516 1517 1517 1518 1518 1519 1520 1521 1522 1523 1524 1526 1527 1529 1530 1531 1533 1534 1536 1537 1539 1540 1542 1544 1546 1549
1524 1522 1520 1518 1517 1515 1514 1513 1512 1512 1511 1511 1510 1510 1510 1509 1509 1510 1510 1510 1511 1512 1513 1513 1515 1516 1517 1518 1520 1521 1522 1524 1526 1527 1529 1530 1532 1533 1535 1537 1538 1541 1543
1520 1518 1516 1514 1512 1510 1509 1508 1507 1506 1505 1504 1504 1503 1503 1502 1503 1503 1502 1503 1504 1504 1506 1507 1507 1508 1510 1511 1513 1514 1516 1518 1519 1521 1522 1524 1526 1527 1529 1531 1533 1535 1537
1516 1513 1512 1510 1508 1506 1505 1503 1501 1500 1499 1498 1498 1497 1496 1495 1495 1495 1495 1496 1496 1497 1499 1500 1501 1502 1502 1504 1505 1507 1509 1511 1512 1514 1516 1517 1519 1521 1523 1524 1526 1529 1531
1511 1509 1507 1505 1503 1502 1500 1498 1497 1495 1493 1493 1491 1489 1488 1488 1487 1487 1487 1488 1489 1490 1491 1493 1494 1495 1496 1496 1497 1499 1501 1503 1505 1506 1508 1510 1512 1514 1516 1518 1520 1522 1524
1507 1506 1503 1501 1499 1496 1494 1492 1491 1489 1488 1488 1487 1484 1482 1481 1479 1479 1479 1480 1481 1482 1483 1485 1486 1487 1488 1490 1490 1491 1493 1495 1496 1498 1500 1502 1504 1506 1508 1511 1513 1515 1518
1503 1501 1499 1496 1494 1492 1490 1487 1485 1484 1482 1481 1481 1480 1477 1473 1472 1472 1472 1472 1473 1475 1476 1478 1478 1479 1480 1481 1483 1484 1484 1486 1488 1490 1492 1494 1496 1499 1501 1503 1506 1508 1511
1500 1497 1495 1492 1490 1488 1485 1483 1481 1478 1476 1475 1474 1473 1472 1470 1469 1467 1466 1466 1466 1467 1468 1470 1471 1472 1473 1474 1475 1475 1476 1478 1479 1481 1483 1485 1488 1491 1493 1496 1499 1501 1503
1497 1494 1491 1489 1486 1483 1480 1477 1475 1472 1470 1468 1467 1466 1465 1463 1463 1462 1460 1460 1460 1460 1461 1462 1464 1465 1466 1466 1467 1468 1468 1470 1471 1473 1475 1477 1480 1482 1485 1488 1491 1493 1496
1495 1492 1488 1485 1482 1479 1476 1473 1469 1466 1463 1461 1460 1458 1458 1456 1455 1455 1454 1454 1454 1455 1455 1455 1457 1457 1458 1459 1460 1461 1461 1463 1464 1465 1467 1469 1471 1474 1477 1480 1483 1485 1488
1491 1488 1485 1481 1478 1475 1471 1468 1464 1460 1457 1454 1452 1451 1449 1448 1448 1448 1447 1447 1447 1448 1448 1449 1450 1451 1452 1453 1453 1454 1455 1456 1457 1458 1459 1461 1463 1466 1469 1472 1475 1478 1480
1487 1483 1480 1477 1474 1470 1466 1462 1458 1454 1451 1448 1445 1443 1441 1440 1440 1440 1440 1441 1441 1442 1443 1444 1445 1446 1447 1448 1448 1450 1450 1451 1452 1453 1454 1455 1457 1459 1462 1465 1468 1471 1473
1481 1478 1475 1472 1469 1466 1462 1457 1453 1449 1445 1441 1438 1436 1433 1432 1432 1432 1433 1434 1436 1437 1438 1439 1440 1442 1443 1444 1445 1447 1447 1448 1450 1450 1450 1451 1453 1455 1457 1460 1462 1465 1467
1475 1473 1471 1468 1465 1461 1457 1453 1449 1444 1440 1436 1432 1429 1427 1425 1425 1425 1426 1427 1429 1432 1434 1435 1437 1439 1440 1442 1443 1445 1446 1447 1449 1449 1449 1450 1451 1453 1455 1457 1459 1462 1463
1469 1467 1465 1463 1460 1457 1453 1449 1444 1440 1435 1431 1427 1424 1421 1420 1419 1419 1420 1422 1423 1426 1429 1432 1435 1437 1439 1441 1443 1444 1446 1447 1448 1450 1450 1451 1452 1453 1455 1457 1460 1461 1462
1462 1461 1459 1457 1455 1452 1449 1445 1440 1436 1432 1427 1424 1421 1418 1416 1415 1415 1417 1418 1420 1423 1426 1429 1433 1436 1439 1441 1443 1445 1447 1449 1450 1451 1452 1452 1454 1455 1457 1459 1461 1461 1462
1455 1455 1454 1452 1450 1447 1444 1441 1437 1433 1429 1425 1422 1419 1417 1415 1414 1414 1415 1416 1419 1422 1425 1428 1432 1436 1439 1442 1444 1447 1449 1451 1451 1453 1454 1455 1456 1458 1459 1461 1461 1462 1463
1449 1448 1447 1446 1445 1443 1440 1438 1435 1431 1428 1425 1422 1419 1417 1415 1415 1415 1415 1417 1420 1423 1426 1430 1434 1438 1441 1444 1447 1449 1451 1453 1454 1456 1457 1458 1459 1461 1462 1462 1463 1463 1463
1442 1441 1440 1440 1439 1438 1437 1435 1432 1430 1427 1425 1423 1421 1419 1418 1418 1418 1419 1421 1423 1426 1429 1433 1436 1440 1443 1446 1449 1452 1453 1455 1457 1459 1460 1461 1462 1463 1464 1464 1464 1464 1465
1435 1434 1433 1433 1433 1434 1432 1431 1430 1429 1427 1425 1424 1423 1422 1421 1422 1423 1424 1426 1428 1431 1434 1436 1439 1442 1445 1448 1451 1454 1456 1457 1459 1462 1462 1464 1465 1465 1466 1465 1466 1466 1466
1429 1426 1426 1426 1427 1427 1427 1428 1428 1428 1427 1426 1425 1425 1424 1425 1426 1427 1429 1431 1433 1436 1439 1440 1442 1445 1448 1450 1453 1455 1457 1458 1460 1463 1464 1465 1467 1467 1467 1467 1467 1467 1467
1423 1420 1419 1419 1420 1422 1423 1424 1425 1426 1427 1427 1427 1427 1427 1428 1430 1432 1434 1436 1438 1440 1443 1444 1445 1448 1450 1453 1455 1456 1458 1459 1461 1463 1466 1467 1468 1469 1470 1469 1468 1468 1467
1417 1414 1412 1412 1414 1416 1418 1420 1423 1425 1426 1427 1428 1430 1431 1432 1434 1436 1438 1440 1442 1444 1446 1447 1449 1450 1452 1454 1457 1460 1461 1462 1464 1465 1467 1468 1469 1470 1471 1471 1470 1468 1467
1411 1409 1406 1405 1407 1410 1413 1416 1420 1423 1425 1427 1429 1431 1433 1435 1437 1439 1441 1443 1445 1448 1449 1451 1452 1454 1455 1457 1458 1460 1462 1463 1464 1466 1467 1469 1470 1471 1472 1472 1472 1471 1469